Date_Time,Julian_Date,Latitude,Longitude,Instrument_Depth,U,V,Speed,Direction
(yyyy-mm-dd hh:mn:ss UTC),(JD),(+ deg. North),(+ deg. East),(m),(cm/s),(cm/s),(cm/s),(deg True)
1984-10-18 18:45:00 UTC,2445992.281250,25.6003,-85.4994,3174,-4.35,12.35,13.0937,340.5964
1984-10-18 19:15:00 UTC,2445992.302083,25.6003,-85.4994,3174,-5.28,12.43,13.5049,336.9853
1984-10-18 19:45:00 UTC,2445992.322917,25.6003,-85.4994,3174,-4.55,12.90,13.6789,340.5716
1984-10-18 20:15:00 UTC,2445992.343750,25.6003,-85.4994,3174,-5.55,13.25,14.3654,337.2728
1984-10-18 20:45:00 UTC,2445992.364583,25.6003,-85.4994,3174,-6.40,13.30,14.7597,334.3030
1984-10-18 21:15:00 UTC,2445992.385417,25.6003,-85.4994,3174,-6.35,13.33,14.7652,334.5283
1984-10-18 21:45:00 UTC,2445992.406250,25.6003,-85.4994,3174,-6.78,13.13,14.7772,332.6893
1984-10-18 22:15:00 UTC,2445992.427083,25.6003,-85.4994,3174,-6.40,13.38,14.8319,334.4370
1984-10-18 22:45:00 UTC,2445992.447917,25.6003,-85.4994,3174,-6.23,13.98,15.3053,335.9805
1984-10-18 23:15:00 UTC,2445992.468750,25.6003,-85.4994,3174,-6.25,13.78,15.1311,335.6031
1984-10-18 23:45:00 UTC,2445992.489583,25.6003,-85.4994,3174,-6.58,13.50,15.0182,334.0150
1984-10-19 00:15:00 UTC,2445992.510417,25.6003,-85.4994,3174,-6.45,12.20,13.8001,332.1351
1984-10-19 00:45:00 UTC,2445992.531250,25.6003,-85.4994,3174,-7.50,13.45,15.3998,330.8550
1984-10-19 01:15:00 UTC,2445992.552083,25.6003,-85.4994,3174,-7.63,12.30,14.4744,328.1876
1984-10-19 01:45:00 UTC,2445992.572917,25.6003,-85.4994,3174,-7.33,12.03,14.0872,328.6456
1984-10-19 02:15:00 UTC,2445992.593750,25.6003,-85.4994,3174,-7.00,11.65,13.5913,329.0001
1984-10-19 02:45:00 UTC,2445992.614583,25.6003,-85.4994,3174,-6.08,11.65,13.1411,332.4405
1984-10-19 03:15:00 UTC,2445992.635417,25.6003,-85.4994,3174,-6.30,11.95,13.5090,332.2020
1984-10-19 03:45:00 UTC,2445992.656250,25.6003,-85.4994,3174,-6.03,10.95,12.5005,331.1591
1984-10-19 04:15:00 UTC,2445992.677083,25.6003,-85.4994,3174,-5.88,11.15,12.6054,332.1949
1984-10-19 04:45:00 UTC,2445992.697917,25.6003,-85.4994,3174,-6.35,10.80,12.5285,329.5461
1984-10-19 05:15:00 UTC,2445992.718750,25.6003,-85.4994,3174,-6.43,11.68,13.3329,331.1666
1984-10-19 05:45:00 UTC,2445992.739583,25.6003,-85.4994,3174,-6.18,11.45,13.0113,331.6426
1984-10-19 06:15:00 UTC,2445992.760417,25.6003,-85.4994,3174,-5.88,11.28,12.7206,332.4680
1984-10-19 06:45:00 UTC,2445992.781250,25.6003,-85.4994,3174,-5.43,10.43,11.7588,332.4979
1984-10-19 07:15:00 UTC,2445992.802083,25.6003,-85.4994,3174,-6.23,10.78,12.4508,329.9754
1984-10-19 07:45:00 UTC,2445992.822917,25.6003,-85.4994,3174,-6.25,9.50,11.3716,326.6593
1984-10-19 08:15:00 UTC,2445992.843750,25.6003,-85.4994,3174,-6.58,9.65,11.6798,325.7113
1984-10-19 08:45:00 UTC,2445992.864583,25.6003,-85.4994,3174,-6.45,9.88,11.7990,326.8621
1984-10-19 09:15:00 UTC,2445992.885417,25.6003,-85.4994,3174,-6.23,10.20,11.9521,328.5841
1984-10-19 09:45:00 UTC,2445992.906250,25.6003,-85.4994,3174,-5.55,9.55,11.0456,329.8369
1984-10-19 10:15:00 UTC,2445992.927083,25.6003,-85.4994,3174,-5.20,8.80,10.2215,329.4208
1984-10-19 10:45:00 UTC,2445992.947917,25.6003,-85.4994,3174,-5.13,8.28,9.7404,328.2191
1984-10-19 11:15:00 UTC,2445992.968750,25.6003,-85.4994,3174,-5.18,7.65,9.2388,325.8971
1984-10-19 11:45:00 UTC,2445992.989583,25.6003,-85.4994,3174,-5.38,6.90,8.7495,322.0561
1984-10-19 12:15:00 UTC,2445993.010417,25.6003,-85.4994,3174,-6.48,7.78,10.1252,320.2089
1984-10-19 12:45:00 UTC,2445993.031250,25.6003,-85.4994,3174,-6.53,7.03,9.5949,317.1117
1984-10-19 13:15:00 UTC,2445993.052083,25.6003,-85.4994,3174,-7.18,6.33,9.5719,311.3999
1984-10-19 13:45:00 UTC,2445993.072917,25.6003,-85.4994,3174,-7.30,7.23,10.2744,314.7240
1984-10-19 14:15:00 UTC,2445993.093750,25.6003,-85.4994,3174,-6.63,6.45,9.2498,314.2116
1984-10-19 14:45:00 UTC,2445993.114583,25.6003,-85.4994,3174,-7.18,8.00,10.7495,318.0920
1984-10-19 15:15:00 UTC,2445993.135417,25.6003,-85.4994,3174,-6.85,7.38,10.0691,317.1330
1984-10-19 15:45:00 UTC,2445993.156250,25.6003,-85.4994,3174,-7.03,7.48,10.2651,316.7764
1984-10-19 16:15:00 UTC,2445993.177083,25.6003,-85.4994,3174,-7.80,8.40,11.4630,317.1211
1984-10-19 16:45:00 UTC,2445993.197917,25.6003,-85.4994,3174,-7.18,8.43,11.0733,319.5783
1984-10-19 17:15:00 UTC,2445993.218750,25.6003,-85.4994,3174,-7.48,8.45,11.2851,318.4845
1984-10-19 17:45:00 UTC,2445993.239583,25.6003,-85.4994,3174,-7.13,7.95,10.6789,318.1125
1984-10-19 18:15:00 UTC,2445993.260417,25.6003,-85.4994,3174,-7.98,8.38,11.5717,316.4006
1984-10-19 18:45:00 UTC,2445993.281250,25.6003,-85.4994,3174,-7.88,8.15,11.3365,315.9650
1984-10-19 19:15:00 UTC,2445993.302083,25.6003,-85.4994,3174,-7.98,8.25,11.4779,315.9531
1984-10-19 19:45:00 UTC,2445993.322917,25.6003,-85.4994,3174,-8.45,8.83,12.2218,316.2598
1984-10-19 20:15:00 UTC,2445993.343750,25.6003,-85.4994,3174,-9.30,9.68,13.4236,316.1470
1984-10-19 20:45:00 UTC,2445993.364583,25.6003,-85.4994,3174,-9.05,9.85,13.3763,317.4238
1984-10-19 21:15:00 UTC,2445993.385417,25.6003,-85.4994,3174,-8.60,10.28,13.4029,320.0850
1984-10-19 21:45:00 UTC,2445993.406250,25.6003,-85.4994,3174,-7.40,10.48,12.8293,324.7738
1984-10-19 22:15:00 UTC,2445993.427083,25.6003,-85.4994,3174,-7.03,10.28,12.4539,325.6336
1984-10-19 22:45:00 UTC,2445993.447917,25.6003,-85.4994,3174,-7.40,11.53,13.7004,327.3075
1984-10-19 23:15:00 UTC,2445993.468750,25.6003,-85.4994,3174,-7.08,11.83,13.7868,329.1004
1984-10-19 23:45:00 UTC,2445993.489583,25.6003,-85.4994,3174,-7.33,12.78,14.7329,330.1635
1984-10-20 00:15:00 UTC,2445993.510417,25.6003,-85.4994,3174,-8.75,13.05,15.7119,326.1582
1984-10-20 00:45:00 UTC,2445993.531250,25.6003,-85.4994,3174,-8.40,12.80,15.3101,326.7251
1984-10-20 01:15:00 UTC,2445993.552083,25.6003,-85.4994,3174,-7.95,11.60,14.0628,325.5754
1984-10-20 01:45:00 UTC,2445993.572917,25.6003,-85.4994,3174,-8.43,12.98,15.4773,326.9979
1984-10-20 02:15:00 UTC,2445993.593750,25.6003,-85.4994,3174,-8.58,11.75,14.5492,323.8626
1984-10-20 02:45:00 UTC,2445993.614583,25.6003,-85.4994,3174,-8.23,11.43,14.0847,324.2448
1984-10-20 03:15:00 UTC,2445993.635417,25.6003,-85.4994,3174,-8.10,10.83,13.5240,323.2064
1984-10-20 03:45:00 UTC,2445993.656250,25.6003,-85.4994,3174,-7.83,10.68,13.2428,323.7531
1984-10-20 04:15:00 UTC,2445993.677083,25.6003,-85.4994,3174,-6.98,9.98,12.1787,325.0311
1984-10-20 04:45:00 UTC,2445993.697917,25.6003,-85.4994,3174,-6.95,9.53,11.7951,323.8976
1984-10-20 05:15:00 UTC,2445993.718750,25.6003,-85.4994,3174,-7.23,10.03,12.3642,324.2145
1984-10-20 05:45:00 UTC,2445993.739583,25.6003,-85.4994,3174,-6.03,9.38,11.1510,327.2648
1984-10-20 06:15:00 UTC,2445993.760417,25.6003,-85.4994,3174,-5.95,8.75,10.5814,325.7843
1984-10-20 06:45:00 UTC,2445993.781250,25.6003,-85.4994,3174,-5.65,7.95,9.7532,324.5989
1984-10-20 07:15:00 UTC,2445993.802083,25.6003,-85.4994,3174,-5.58,7.95,9.7128,324.9355
1984-10-20 07:45:00 UTC,2445993.822917,25.6003,-85.4994,3174,-5.38,7.50,9.2301,324.3469
1984-10-20 08:15:00 UTC,2445993.843750,25.6003,-85.4994,3174,-5.15,6.40,8.2148,321.1768
1984-10-20 08:45:00 UTC,2445993.864583,25.6003,-85.4994,3174,-5.30,6.73,8.5664,321.7789
1984-10-20 09:15:00 UTC,2445993.885417,25.6003,-85.4994,3174,-5.50,6.13,8.2357,318.1007
1984-10-20 09:45:00 UTC,2445993.906250,25.6003,-85.4994,3174,-5.95,6.40,8.7386,317.0868
1984-10-20 10:15:00 UTC,2445993.927083,25.6003,-85.4994,3174,-6.35,6.73,9.2529,316.6641
1984-10-20 10:45:00 UTC,2445993.947917,25.6003,-85.4994,3174,-5.53,5.88,8.0719,316.7570
1984-10-20 11:15:00 UTC,2445993.968750,25.6003,-85.4994,3174,-5.83,5.28,7.8656,312.1659
1984-10-20 11:45:00 UTC,2445993.989583,25.6003,-85.4994,3174,-6.00,5.10,7.8746,310.3645
1984-10-20 12:15:00 UTC,2445994.010417,25.6003,-85.4994,3174,-6.25,5.05,8.0352,308.9382
1984-10-20 12:45:00 UTC,2445994.031250,25.6003,-85.4994,3174,-6.90,5.63,8.9054,309.2125
1984-10-20 13:15:00 UTC,2445994.052083,25.6003,-85.4994,3174,-6.78,5.48,8.7177,308.9472
1984-10-20 13:45:00 UTC,2445994.072917,25.6003,-85.4994,3174,-7.10,5.05,8.7128,305.4230
1984-10-20 14:15:00 UTC,2445994.093750,25.6003,-85.4994,3174,-7.30,5.65,9.2311,307.7389
1984-10-20 14:45:00 UTC,2445994.114583,25.6003,-85.4994,3174,-7.48,5.18,9.0985,304.7031
1984-10-20 15:15:00 UTC,2445994.135417,25.6003,-85.4994,3174,-8.53,5.73,10.2759,303.8911
1984-10-20 15:45:00 UTC,2445994.156250,25.6003,-85.4994,3174,-8.98,5.65,10.6096,302.1771
1984-10-20 16:15:00 UTC,2445994.177083,25.6003,-85.4994,3174,-8.23,4.53,9.3943,298.8295
1984-10-20 16:45:00 UTC,2445994.197917,25.6003,-85.4994,3174,-7.95,3.95,8.8772,296.4207
1984-10-20 17:15:00 UTC,2445994.218750,25.6003,-85.4994,3174,-8.78,4.25,9.7545,295.8295
1984-10-20 17:45:00 UTC,2445994.239583,25.6003,-85.4994,3174,-8.63,4.18,9.5890,295.8436
1984-10-20 18:15:00 UTC,2445994.260417,25.6003,-85.4994,3174,-8.35,5.38,9.9331,302.7942
1984-10-20 18:45:00 UTC,2445994.281250,25.6003,-85.4994,3174,-9.13,6.08,10.9692,303.6611
1984-10-20 19:15:00 UTC,2445994.302083,25.6003,-85.4994,3174,-10.48,5.78,11.9682,298.8779
1984-10-20 19:45:00 UTC,2445994.322917,25.6003,-85.4994,3174,-11.10,6.03,12.6321,298.5127
1984-10-20 20:15:00 UTC,2445994.343750,25.6003,-85.4994,3174,-12.13,6.55,13.7855,298.3683
1984-10-20 20:45:00 UTC,2445994.364583,25.6003,-85.4994,3174,-10.23,7.58,12.7322,306.5369
1984-10-20 21:15:00 UTC,2445994.385417,25.6003,-85.4994,3174,-10.15,7.75,12.7705,307.3634
1984-10-20 21:45:00 UTC,2445994.406250,25.6003,-85.4994,3174,-11.45,8.93,14.5206,307.9511
1984-10-20 22:15:00 UTC,2445994.427083,25.6003,-85.4994,3174,-11.80,8.55,14.5720,305.9262
1984-10-20 22:45:00 UTC,2445994.447917,25.6003,-85.4994,3174,-12.18,8.53,14.8699,305.0046
1984-10-20 23:15:00 UTC,2445994.468750,25.6003,-85.4994,3174,-11.58,10.13,15.3855,311.1789
1984-10-20 23:45:00 UTC,2445994.489583,25.6003,-85.4994,3174,-10.95,11.43,15.8287,316.2287
1984-10-21 00:15:00 UTC,2445994.510417,25.6003,-85.4994,3174,-10.78,12.88,16.7959,320.0721
1984-10-21 00:45:00 UTC,2445994.531250,25.6003,-85.4994,3174,-10.68,13.58,17.2765,321.8167
1984-10-21 01:15:00 UTC,2445994.552083,25.6003,-85.4994,3174,-11.40,14.03,18.0776,320.9046
1984-10-21 01:45:00 UTC,2445994.572917,25.6003,-85.4994,3174,-10.58,14.25,17.7482,323.4077
1984-10-21 02:15:00 UTC,2445994.593750,25.6003,-85.4994,3174,-10.33,13.95,17.3583,323.4800
1984-10-21 02:45:00 UTC,2445994.614583,25.6003,-85.4994,3174,-9.50,13.15,16.2226,324.1544
1984-10-21 03:15:00 UTC,2445994.635417,25.6003,-85.4994,3174,-10.25,13.10,16.6335,321.9589
1984-10-21 03:45:00 UTC,2445994.656250,25.6003,-85.4994,3174,-9.70,12.10,15.5081,321.2825
1984-10-21 04:15:00 UTC,2445994.677083,25.6003,-85.4994,3174,-9.70,12.10,15.5081,321.2825
1984-10-21 04:45:00 UTC,2445994.697917,25.6003,-85.4994,3174,-9.53,11.90,15.2457,321.3109
1984-10-21 05:15:00 UTC,2445994.718750,25.6003,-85.4994,3174,-8.85,11.20,14.2745,321.6850
1984-10-21 05:45:00 UTC,2445994.739583,25.6003,-85.4994,3174,-8.85,11.55,14.5508,322.5395
1984-10-21 06:15:00 UTC,2445994.760417,25.6003,-85.4994,3174,-8.70,10.55,13.6745,320.4895
1984-10-21 06:45:00 UTC,2445994.781250,25.6003,-85.4994,3174,-8.33,11.60,14.2811,324.3177
1984-10-21 07:15:00 UTC,2445994.802083,25.6003,-85.4994,3174,-8.20,10.63,13.4252,322.3533
1984-10-21 07:45:00 UTC,2445994.822917,25.6003,-85.4994,3174,-7.38,10.50,12.8341,324.8983
1984-10-21 08:15:00 UTC,2445994.843750,25.6003,-85.4994,3174,-7.13,10.45,12.6507,325.6944
1984-10-21 08:45:00 UTC,2445994.864583,25.6003,-85.4994,3174,-7.23,9.63,12.0420,323.1016
1984-10-21 09:15:00 UTC,2445994.885417,25.6003,-85.4994,3174,-7.70,9.73,12.4082,321.6431
1984-10-21 09:45:00 UTC,2445994.906250,25.6003,-85.4994,3174,-7.58,8.98,11.7515,319.8324
1984-10-21 10:15:00 UTC,2445994.927083,25.6003,-85.4994,3174,-7.73,8.88,11.7732,318.9606
1984-10-21 10:45:00 UTC,2445994.947917,25.6003,-85.4994,3174,-7.20,7.90,10.6888,317.6542
1984-10-21 11:15:00 UTC,2445994.968750,25.6003,-85.4994,3174,-7.55,7.78,10.8412,315.8596
1984-10-21 11:45:00 UTC,2445994.989583,25.6003,-85.4994,3174,-8.38,8.08,11.6409,313.9558
1984-10-21 12:15:00 UTC,2445995.010417,25.6003,-85.4994,3174,-8.58,7.93,11.6834,312.7454
1984-10-21 12:45:00 UTC,2445995.031250,25.6003,-85.4994,3174,-8.73,7.55,11.5419,310.8544
1984-10-21 13:15:00 UTC,2445995.052083,25.6003,-85.4994,3174,-8.38,7.35,11.1466,311.2536
1984-10-21 13:45:00 UTC,2445995.072917,25.6003,-85.4994,3174,-9.55,7.48,12.1307,308.0697
1984-10-21 14:15:00 UTC,2445995.093750,25.6003,-85.4994,3174,-9.28,7.85,12.1549,310.2281
1984-10-21 14:45:00 UTC,2445995.114583,25.6003,-85.4994,3174,-9.60,8.00,12.4964,309.8056
1984-10-21 15:15:00 UTC,2445995.135417,25.6003,-85.4994,3174,-9.78,8.03,12.6542,309.3882
1984-10-21 15:45:00 UTC,2445995.156250,25.6003,-85.4994,3174,-9.55,8.10,12.5225,310.3035
1984-10-21 16:15:00 UTC,2445995.177083,25.6003,-85.4994,3174,-9.65,7.75,12.3768,308.7682
1984-10-21 16:45:00 UTC,2445995.197917,25.6003,-85.4994,3174,-9.63,7.50,12.2060,307.9120
1984-10-21 17:15:00 UTC,2445995.218750,25.6003,-85.4994,3174,-9.45,7.00,11.7602,306.5289
1984-10-21 17:45:00 UTC,2445995.239583,25.6003,-85.4994,3174,-9.68,7.58,12.2947,308.0630
1984-10-21 18:15:00 UTC,2445995.260417,25.6003,-85.4994,3174,-10.08,7.55,12.5940,306.8335
1984-10-21 18:45:00 UTC,2445995.281250,25.6003,-85.4994,3174,-10.40,8.10,13.1822,307.9131
1984-10-21 19:15:00 UTC,2445995.302083,25.6003,-85.4994,3174,-9.93,7.93,12.7079,308.6105
1984-10-21 19:45:00 UTC,2445995.322917,25.6003,-85.4994,3174,-10.30,8.73,13.5020,310.2837
1984-10-21 20:15:00 UTC,2445995.343750,25.6003,-85.4994,3174,-10.60,8.65,13.6815,309.2158
1984-10-21 20:45:00 UTC,2445995.364583,25.6003,-85.4994,3174,-10.43,9.45,14.0744,312.1779
1984-10-21 21:15:00 UTC,2445995.385417,25.6003,-85.4994,3174,-10.98,10.28,15.0412,313.1142
1984-10-21 21:45:00 UTC,2445995.406250,25.6003,-85.4994,3174,-10.33,10.15,14.4821,314.4964
1984-10-21 22:15:00 UTC,2445995.427083,25.6003,-85.4994,3174,-9.85,10.35,14.2879,316.4179
1984-10-21 22:45:00 UTC,2445995.447917,25.6003,-85.4994,3174,-9.38,11.30,14.6859,320.3043
1984-10-21 23:15:00 UTC,2445995.468750,25.6003,-85.4994,3174,-10.10,11.53,15.3281,318.7824
1984-10-21 23:45:00 UTC,2445995.489583,25.6003,-85.4994,3174,-9.78,11.43,15.0430,319.4483
1984-10-22 00:15:00 UTC,2445995.510417,25.6003,-85.4994,3174,-9.75,11.10,14.7740,318.7046
1984-10-22 00:45:00 UTC,2445995.531250,25.6003,-85.4994,3174,-9.60,11.68,15.1189,320.5826
1984-10-22 01:15:00 UTC,2445995.552083,25.6003,-85.4994,3174,-9.30,11.08,14.4657,319.9916
1984-10-22 01:45:00 UTC,2445995.572917,25.6003,-85.4994,3174,-9.50,11.18,14.6711,319.6444
1984-10-22 02:15:00 UTC,2445995.593750,25.6003,-85.4994,3174,-9.25,11.40,14.6807,320.9440
1984-10-22 02:45:00 UTC,2445995.614583,25.6003,-85.4994,3174,-9.63,11.38,14.9078,319.7614
1984-10-22 03:15:00 UTC,2445995.635417,25.6003,-85.4994,3174,-9.55,11.00,14.5672,319.0361
1984-10-22 03:45:00 UTC,2445995.656250,25.6003,-85.4994,3174,-10.35,11.15,15.2133,317.1310
1984-10-22 04:15:00 UTC,2445995.677083,25.6003,-85.4994,3174,-9.80,10.90,14.6578,318.0418
1984-10-22 04:45:00 UTC,2445995.697917,25.6003,-85.4994,3174,-9.65,9.85,13.7893,315.5876
1984-10-22 05:15:00 UTC,2445995.718750,25.6003,-85.4994,3174,-8.95,9.30,12.9071,316.0987
1984-10-22 05:45:00 UTC,2445995.739583,25.6003,-85.4994,3174,-8.93,8.95,12.6431,315.0641
1984-10-22 06:15:00 UTC,2445995.760417,25.6003,-85.4994,3174,-8.35,8.93,12.2257,316.9224
1984-10-22 06:45:00 UTC,2445995.781250,25.6003,-85.4994,3174,-8.03,8.85,11.9500,317.7811
1984-10-22 07:15:00 UTC,2445995.802083,25.6003,-85.4994,3174,-8.30,8.30,11.7380,315.0000
1984-10-22 07:45:00 UTC,2445995.822917,25.6003,-85.4994,3174,-8.03,8.50,11.6932,316.6287
1984-10-22 08:15:00 UTC,2445995.843750,25.6003,-85.4994,3174,-7.30,7.65,10.5741,316.3411
1984-10-22 08:45:00 UTC,2445995.864583,25.6003,-85.4994,3174,-7.88,8.23,11.3942,316.2446
1984-10-22 09:15:00 UTC,2445995.885417,25.6003,-85.4994,3174,-7.78,7.88,11.0735,315.3659
1984-10-22 09:45:00 UTC,2445995.906250,25.6003,-85.4994,3174,-6.68,7.55,10.0809,318.4986
1984-10-22 10:15:00 UTC,2445995.927083,25.6003,-85.4994,3174,-6.23,6.58,9.0614,316.5651
1984-10-22 10:45:00 UTC,2445995.947917,25.6003,-85.4994,3174,-6.45,6.43,9.1075,314.9110
1984-10-22 11:15:00 UTC,2445995.968750,25.6003,-85.4994,3174,-6.65,6.45,9.2642,314.1253
1984-10-22 11:45:00 UTC,2445995.989583,25.6003,-85.4994,3174,-7.10,6.20,9.4260,311.1288
1984-10-22 12:15:00 UTC,2445996.010417,25.6003,-85.4994,3174,-7.38,6.40,9.7685,310.9321
1984-10-22 12:45:00 UTC,2445996.031250,25.6003,-85.4994,3174,-6.90,6.15,9.2430,311.7108
1984-10-22 13:15:00 UTC,2445996.052083,25.6003,-85.4994,3174,-7.70,6.20,9.8858,308.8409
1984-10-22 13:45:00 UTC,2445996.072917,25.6003,-85.4994,3174,-7.65,5.75,9.5700,306.9298
1984-10-22 14:15:00 UTC,2445996.093750,25.6003,-85.4994,3174,-7.53,5.60,9.3841,306.6379
1984-10-22 14:45:00 UTC,2445996.114583,25.6003,-85.4994,3174,-7.18,5.55,9.0750,307.7033
1984-10-22 15:15:00 UTC,2445996.135417,25.6003,-85.4994,3174,-7.88,5.45,9.5811,304.6687
1984-10-22 15:45:00 UTC,2445996.156250,25.6003,-85.4994,3174,-8.83,5.78,10.5535,303.2082
1984-10-22 16:15:00 UTC,2445996.177083,25.6003,-85.4994,3174,-8.40,5.28,9.9216,302.1523
1984-10-22 16:45:00 UTC,2445996.197917,25.6003,-85.4994,3174,-8.45,5.55,10.1096,303.2971
1984-10-22 17:15:00 UTC,2445996.218750,25.6003,-85.4994,3174,-9.03,5.78,10.7214,302.6229
1984-10-22 17:45:00 UTC,2445996.239583,25.6003,-85.4994,3174,-7.15,5.00,8.7248,304.9651
1984-10-22 18:15:00 UTC,2445996.260417,25.6003,-85.4994,3174,-7.75,5.60,9.5615,305.8511
1984-10-22 18:45:00 UTC,2445996.281250,25.6003,-85.4994,3174,-7.68,5.40,9.3884,305.1120
1984-10-22 19:15:00 UTC,2445996.302083,25.6003,-85.4994,3174,-7.65,5.45,9.3928,305.4668
1984-10-22 19:45:00 UTC,2445996.322917,25.6003,-85.4994,3174,-6.83,4.88,8.3942,305.5456
1984-10-22 20:15:00 UTC,2445996.343750,25.6003,-85.4994,3174,-7.10,5.35,8.8900,306.9988
1984-10-22 20:45:00 UTC,2445996.364583,25.6003,-85.4994,3174,-7.03,5.15,8.7146,306.2256
1984-10-22 21:15:00 UTC,2445996.385417,25.6003,-85.4994,3174,-7.00,4.93,8.5618,305.1565
1984-10-22 21:45:00 UTC,2445996.406250,25.6003,-85.4994,3174,-6.88,5.38,8.7338,308.0246
1984-10-22 22:15:00 UTC,2445996.427083,25.6003,-85.4994,3174,-6.90,5.90,9.0785,310.5328
1984-10-22 22:45:00 UTC,2445996.447917,25.6003,-85.4994,3174,-6.23,5.38,8.2315,310.8127
1984-10-22 23:15:00 UTC,2445996.468750,25.6003,-85.4994,3174,-6.18,5.43,8.2266,311.3039
1984-10-22 23:45:00 UTC,2445996.489583,25.6003,-85.4994,3174,-6.65,5.63,8.7132,310.2518
1984-10-23 00:15:00 UTC,2445996.510417,25.6003,-85.4994,3174,-6.08,5.50,8.1986,312.1327
1984-10-23 00:45:00 UTC,2445996.531250,25.6003,-85.4994,3174,-5.83,5.58,8.0700,313.7448
1984-10-23 01:15:00 UTC,2445996.552083,25.6003,-85.4994,3174,-6.30,6.05,8.7346,313.8403
1984-10-23 01:45:00 UTC,2445996.572917,25.6003,-85.4994,3174,-5.93,5.40,8.0203,312.3217
1984-10-23 02:15:00 UTC,2445996.593750,25.6003,-85.4994,3174,-6.03,5.55,8.1953,312.6264
1984-10-23 02:45:00 UTC,2445996.614583,25.6003,-85.4994,3174,-5.73,5.15,7.7042,311.9485
1984-10-23 03:15:00 UTC,2445996.635417,25.6003,-85.4994,3174,-5.90,5.00,7.7337,310.2799
1984-10-23 03:45:00 UTC,2445996.656250,25.6003,-85.4994,3174,-6.13,5.18,8.0255,310.1986
1984-10-23 04:15:00 UTC,2445996.677083,25.6003,-85.4994,3174,-5.95,4.85,7.6763,309.1844
1984-10-23 04:45:00 UTC,2445996.697917,25.6003,-85.4994,3174,-6.18,4.90,7.8868,308.4102
1984-10-23 05:15:00 UTC,2445996.718750,25.6003,-85.4994,3174,-6.23,4.55,7.7146,306.1420
1984-10-23 05:45:00 UTC,2445996.739583,25.6003,-85.4994,3174,-6.10,4.48,7.5684,306.2946
1984-10-23 06:15:00 UTC,2445996.760417,25.6003,-85.4994,3174,-5.20,3.95,6.5301,307.2209
1984-10-23 06:45:00 UTC,2445996.781250,25.6003,-85.4994,3174,-4.88,3.83,6.2035,308.1261
1984-10-23 07:15:00 UTC,2445996.802083,25.6003,-85.4994,3174,-5.00,3.63,6.1787,305.9796
1984-10-23 07:45:00 UTC,2445996.822917,25.6003,-85.4994,3174,-5.48,3.83,6.6858,304.9499
1984-10-23 08:15:00 UTC,2445996.843750,25.6003,-85.4994,3174,-4.70,3.43,5.8185,306.1215
1984-10-23 08:45:00 UTC,2445996.864583,25.6003,-85.4994,3174,-5.13,3.75,6.3545,306.1666
1984-10-23 09:15:00 UTC,2445996.885417,25.6003,-85.4994,3174,-4.50,3.48,5.6886,307.7160
1984-10-23 09:45:00 UTC,2445996.906250,25.6003,-85.4994,3174,-5.13,4.05,6.5360,308.2902
1984-10-23 10:15:00 UTC,2445996.927083,25.6003,-85.4994,3174,-5.00,3.63,6.1787,305.9796
1984-10-23 10:45:00 UTC,2445996.947917,25.6003,-85.4994,3174,-5.13,3.73,6.3427,306.0207
1984-10-23 11:15:00 UTC,2445996.968750,25.6003,-85.4994,3174,-4.83,3.30,5.8497,304.3421
1984-10-23 11:45:00 UTC,2445996.989583,25.6003,-85.4994,3174,-5.15,3.70,6.3413,305.6952
1984-10-23 12:15:00 UTC,2445997.010417,25.6003,-85.4994,3174,-5.60,3.65,6.6845,303.0957
1984-10-23 12:45:00 UTC,2445997.031250,25.6003,-85.4994,3174,-5.45,3.50,6.4771,302.7086
1984-10-23 13:15:00 UTC,2445997.052083,25.6003,-85.4994,3174,-5.88,3.88,7.0448,303.4194
1984-10-23 13:45:00 UTC,2445997.072917,25.6003,-85.4994,3174,-6.45,4.58,7.9107,305.3777
1984-10-23 14:15:00 UTC,2445997.093750,25.6003,-85.4994,3174,-6.20,4.33,7.5623,304.9300
1984-10-23 14:45:00 UTC,2445997.114583,25.6003,-85.4994,3174,-6.60,5.20,8.4024,308.2338
1984-10-23 15:15:00 UTC,2445997.135417,25.6003,-85.4994,3174,-5.95,4.63,7.5392,307.8883
1984-10-23 15:45:00 UTC,2445997.156250,25.6003,-85.4994,3174,-5.78,4.58,7.3746,308.3929
1984-10-23 16:15:00 UTC,2445997.177083,25.6003,-85.4994,3174,-5.93,4.90,7.6925,309.5672
1984-10-23 16:45:00 UTC,2445997.197917,25.6003,-85.4994,3174,-6.15,4.90,7.8634,308.5460
1984-10-23 17:15:00 UTC,2445997.218750,25.6003,-85.4994,3174,-6.00,4.58,7.5483,307.3557
1984-10-23 17:45:00 UTC,2445997.239583,25.6003,-85.4994,3174,-6.58,5.20,8.3867,308.3184
1984-10-23 18:15:00 UTC,2445997.260417,25.6003,-85.4994,3174,-6.43,5.38,8.3839,309.9193
1984-10-23 18:45:00 UTC,2445997.281250,25.6003,-85.4994,3174,-6.50,5.30,8.3869,309.1933
1984-10-23 19:15:00 UTC,2445997.302083,25.6003,-85.4994,3174,-5.83,5.03,7.7000,310.7869
1984-10-23 19:45:00 UTC,2445997.322917,25.6003,-85.4994,3174,-5.38,4.78,7.1967,311.6203
1984-10-23 20:15:00 UTC,2445997.343750,25.6003,-85.4994,3174,-4.58,4.18,6.2007,312.3856
1984-10-23 20:45:00 UTC,2445997.364583,25.6003,-85.4994,3174,-4.45,4.10,6.0508,312.6559
1984-10-23 21:15:00 UTC,2445997.385417,25.6003,-85.4994,3174,-4.55,3.95,6.0254,310.9623
1984-10-23 21:45:00 UTC,2445997.406250,25.6003,-85.4994,3174,-4.33,3.98,5.8813,312.5883
1984-10-23 22:15:00 UTC,2445997.427083,25.6003,-85.4994,3174,-4.53,3.98,6.0300,311.3021
1984-10-23 22:45:00 UTC,2445997.447917,25.6003,-85.4994,3174,-4.53,3.75,5.8808,309.6185
1984-10-23 23:15:00 UTC,2445997.468750,25.6003,-85.4994,3174,-5.03,4.23,6.5722,310.0623
1984-10-23 23:45:00 UTC,2445997.489583,25.6003,-85.4994,3174,-4.55,3.38,5.6681,306.6071
1984-10-24 00:15:00 UTC,2445997.510417,25.6003,-85.4994,3174,-4.60,3.60,5.8412,308.0471
1984-10-24 00:45:00 UTC,2445997.531250,25.6003,-85.4994,3174,-4.93,3.78,6.2124,307.4786
1984-10-24 01:15:00 UTC,2445997.552083,25.6003,-85.4994,3174,-4.73,3.40,5.8252,305.7092
1984-10-24 01:45:00 UTC,2445997.572917,25.6003,-85.4994,3174,-4.23,3.53,5.5094,309.8455
1984-10-24 02:15:00 UTC,2445997.593750,25.6003,-85.4994,3174,-4.45,3.53,5.6801,308.4235
1984-10-24 02:45:00 UTC,2445997.614583,25.6003,-85.4994,3174,-4.35,3.38,5.5088,307.8476
1984-10-24 03:15:00 UTC,2445997.635417,25.6003,-85.4994,3174,-3.95,2.85,4.8708,305.8112
1984-10-24 03:45:00 UTC,2445997.656250,25.6003,-85.4994,3174,-4.33,2.85,5.1838,303.3528
1984-10-24 04:15:00 UTC,2445997.677083,25.6003,-85.4994,3174,-4.65,2.65,5.3521,299.6785
1984-10-24 04:45:00 UTC,2445997.697917,25.6003,-85.4994,3174,-4.60,2.70,5.3339,300.4111
1984-10-24 05:15:00 UTC,2445997.718750,25.6003,-85.4994,3174,-4.53,2.27,5.0669,296.6156
1984-10-24 05:45:00 UTC,2445997.739583,25.6003,-85.4994,3174,-3.23,1.48,3.5529,294.6175
1984-10-24 06:15:00 UTC,2445997.760417,25.6003,-85.4994,3174,-3.53,1.50,3.8355,293.0221
1984-10-24 06:45:00 UTC,2445997.781250,25.6003,-85.4994,3174,-3.60,1.20,3.7947,288.4349
1984-10-24 07:15:00 UTC,2445997.802083,25.6003,-85.4994,3174,-3.88,1.33,4.1016,288.9209
1984-10-24 07:45:00 UTC,2445997.822917,25.6003,-85.4994,3174,-3.70,1.10,3.8601,286.5571